This is the latest recevied weather packets stored in our database for station/object VR2R-13. If no packets are shown the sender has not sent any weather packets the latest 10 day(s).
| Time | Temp. | Humidity | Pressure | Rain* | Wind** | Luminosity | Snow |
|---|---|---|---|---|---|---|---|
| 1778206091 | 21.11° C | 93% | 916.1 hPa | 0 mm | - | - | - |
| 1778205972 | 21.11° C | 92% | 916.1 hPa | 0 mm | - | - | - |
| 1778205252 | 21.67° C | 90% | 916.2 hPa | 0 mm | - | - | - |
| 1778204893 | 22.22° C | 89% | 916.1 hPa | 0 mm | - | - | - |
| 1778203812 | 22.22° C | 88% | 916.2 hPa | 0 mm | - | - | - |
| 1778203452 | 22.22° C | 88% | 916.2 hPa | 0 mm | - | - | - |
| 1778203391 | 22.22° C | 88% | 916.2 hPa | 0 mm | - | - | - |
| 1778203091 | 22.78° C | 88% | 916.1 hPa | 0 mm | - | - | - |
| 1778202791 | 23.33° C | 86% | 915.9 hPa | 0 mm | - | - | - |
| 1778202732 | 23.33° C | 87% | 915.9 hPa | 0 mm | - | - | - |
| 1778202372 | 21.67° C | 90% | 915.9 hPa | 0 mm | - | - | - |
| 1778202191 | 21.67° C | 89% | 915.8 hPa | 0 mm | - | - | - |
| 1778202012 | 21.67° C | 89% | 915.7 hPa | 0 mm | - | - | - |
| 1778201891 | 22.22° C | 88% | 915.8 hPa | 0 mm | - | - | - |
| 1778201652 | 22.22° C | 88% | 915.7 hPa | 0 mm | - | - | - |
| 1778201590 | 22.22° C | 88% | 915.7 hPa | 0 mm | - | - | - |
| 1778201292 | 22.22° C | 88% | 915.7 hPa | 0 mm | - | - | - |
| 1778201291 | 22.22° C | 88% | 915.7 hPa | 0 mm | - | - | - |
| 1778200990 | 22.22° C | 90% | 915.7 hPa | 0 mm | - | - | - |
| 1778200932 | 22.22° C | 90% | 915.7 hPa | 0 mm | - | - | - |
| 1778200690 | 21.67° C | 89% | 915.7 hPa | 0 mm | - | - | - |
| 1778200572 | 21.67° C | 88% | 915.7 hPa | 0 mm | - | - | - |
| 1778200390 | 21.67° C | 88% | 915.7 hPa | 0 mm | - | - | - |
| 1778200212 | 21.67° C | 88% | 915.7 hPa | 0 mm | - | - | - |
| 1778200091 | 21.67° C | 87% | 915.6 hPa | 0 mm | - | - | - |
* Rain latest hour (hover to see other rain measurements)
** Current wind speed in m/s (hover to see current wind gust speed)